Weather History for Delta, CO

Change the Weather History Date:

Thursday, June 20, 2013

  Actual Average (KMTJ) Record (KMTJ)
Temperature  
Mean Temperature 72 °F 70 °F  
Max Temperature 94 °F 87 °F 96 °F (2007)
Min Temperature 50 °F 53 °F 46 °F (2011)
Degree Days  
Heating Degree Days 0 1  
Month to date heating degree days 38  
Since 1 June heating degree days 38  
Since 1 July heating degree days 6202  
Cooling Degree Days 7 5  
Month to date cooling degree days 71  
Year to date cooling degree days 88  
Since 1 June cooling degree days 71  
Growing Degree Days 22 (Base 50)    
Moisture  
Dew Point 16 °F    
Average Humidity 12    
Maximum Humidity 28    
Minimum Humidity 5    
Precipitation  
Precipitation 0.00 in 0.03 in 0.15 in (2011)
Month to date precipitation 0.47  
Year to date precipitation 4.77  
Sea Level Pressure  
Sea Level Pressure 29.92 in    
Wind  
Wind Speed 7 mph (SSW)    
Max Wind Speed 26 mph    
Max Gust Speed 34 mph    
Visibility 10 miles    
Events      
T = Trace of Precipitation, MM = Missing Value Source: NWS Daily Summary

Daily Weather History Graph

Daily Weather History Graph

Search for Another Location

Airport:

Trip Planner

Search our weather history database for the weather conditions in past years. The results will help you decide how hot, cold, wet, or windy it might be!

Date:

Astronomy

Jun. 20, 2013 Rise Set
Actual Time 5:47 AM MDT 8:40 PM MDT
Civil Twilight 5:15 AM MDT 9:12 PM MDT
Nautical Twilight 4:34 AM MDT 9:52 PM MDT
Astronomical Twilight 3:48 AM MDT 10:39 PM MDT
Moon 5:47 PM MDT (6/20) 3:14 AM MDT (6/20)
Length of Visible Light 15h 57m
Length of Day
14h 53m
Waxing Gibbous, 89% of the Moon is Illuminated
Jun 20
Waxing Gibbous
Jun 23
Full
Jun 29
Last Quarter
Jul 8
New
Jul 15
First Quarter

Hourly Weather History & Observations

Time (MDT) Temp. Dew Point Humidity Pressure Visibility Wind Dir Wind Speed Gust Speed Precip Events Conditions
12:15 AM 66.9 °F 13.5 °F 13% 29.85 in 10.0 mi North 9.2 mph - N/A   Clear
12:35 AM 66.2 °F 16.0 °F 14% 29.85 in 10.0 mi NNE 9.2 mph - N/A   Clear
12:55 AM 64.2 °F 18.9 °F 18% 29.87 in 10.0 mi Calm Calm - N/A   Clear
1:15 AM 66.7 °F 12.4 °F 12% 29.87 in 10.0 mi North 3.5 mph - N/A   Clear
1:35 AM 61.7 °F 20.8 °F 21% 29.87 in 10.0 mi NNW 3.5 mph - N/A   Clear
1:55 AM 61.7 °F 11.3 °F 14% 29.88 in 10.0 mi Calm Calm - N/A   Clear
2:15 AM 61.3 °F 16.3 °F 17% 29.89 in 10.0 mi Calm Calm - N/A   Clear
2:35 AM 60.4 °F 13.8 °F 16% 29.89 in 10.0 mi WNW 5.8 mph - N/A   Clear
2:55 AM 61.9 °F 12.6 °F 15% 29.90 in 10.0 mi WNW 4.6 mph - N/A   Clear
3:15 AM 59.7 °F 11.7 °F 15% 29.90 in 10.0 mi SE 4.6 mph - N/A   Clear
3:35 AM 56.5 °F 14.2 °F 19% 29.91 in 10.0 mi East 3.5 mph - N/A   Clear
3:55 AM 58.3 °F 17.1 °F 20% 29.91 in 10.0 mi East 3.5 mph - N/A   Clear
4:15 AM 55.4 °F 16.9 °F 22% 29.92 in 10.0 mi ENE 5.8 mph - N/A   Clear
4:35 AM 57.7 °F 18.1 °F 21% 29.92 in 10.0 mi NE 3.5 mph - N/A   Clear
4:55 AM 54.7 °F 19.2 °F 25% 29.93 in 10.0 mi Calm Calm - N/A   Clear
5:15 AM 54.1 °F 21.0 °F 27% 29.93 in 10.0 mi NE 4.6 mph - N/A   Clear
5:35 AM 55.2 °F 15.8 °F 21% 29.94 in 10.0 mi Calm Calm - N/A   Clear
5:55 AM 50.9 °F 15.6 °F 25% 29.96 in 10.0 mi Calm Calm - N/A   Clear
6:15 AM 52.2 °F 20.1 °F 28% 29.96 in 10.0 mi North 4.6 mph - N/A   Clear
6:35 AM 53.6 °F 20.3 °F 27% 29.98 in 10.0 mi SW 3.5 mph - N/A   Clear
6:55 AM 55.6 °F 16.2 °F 21% 29.98 in 10.0 mi Calm Calm - N/A   Clear
7:15 AM 58.3 °F 17.1 °F 20% 29.98 in 10.0 mi Calm Calm - N/A   Clear
7:35 AM 59.2 °F 19.8 °F 22% 29.99 in 10.0 mi Calm Calm - N/A   Clear
7:55 AM 61.3 °F 21.7 °F 22% 29.99 in 10.0 mi ENE 4.6 mph - N/A   Clear
8:15 AM 67.3 °F 23.5 °F 19% 30.00 in 10.0 mi East 4.6 mph - N/A   Clear
8:35 AM 68.9 °F 20.8 °F 16% 30.00 in 10.0 mi East 9.2 mph - N/A   Clear
8:55 AM 70.7 °F 22.8 °F 16% 30.00 in 10.0 mi East 8.1 mph - N/A   Clear
9:15 AM 72.1 °F 23.9 °F 16% 30.00 in 10.0 mi East 5.8 mph - N/A   Clear
9:35 AM 74.5 °F 23.4 °F 15% 29.99 in 10.0 mi East 3.5 mph - N/A   Clear
9:55 AM 76.1 °F 24.1 °F 14% 29.99 in 10.0 mi East 3.5 mph - N/A   Clear
10:15 AM 78.1 °F 22.6 °F 13% 29.98 in 10.0 mi NNE 3.5 mph - N/A   Clear
10:35 AM 80.4 °F 18.7 °F 10% 29.98 in 10.0 mi Calm Calm - N/A   Clear
10:55 AM 82.6 °F 16.5 °F 9% 29.97 in 10.0 mi Calm Calm - N/A   Clear
11:15 AM 83.1 °F 15.4 °F 8% 29.97 in 10.0 mi Calm Calm - N/A   Clear
11:35 AM 84.7 °F 15.4 °F 8% 29.97 in 10.0 mi ESE 5.8 mph - N/A   Clear
11:55 AM 84.6 °F 16.7 °F 8% 29.96 in 10.0 mi NNW 3.5 mph - N/A   Clear
12:15 PM 86.5 °F 18.0 °F 8% 29.95 in 10.0 mi South 3.5 mph - N/A   Clear
12:35 PM 87.4 °F 19.0 °F 8% 29.94 in 10.0 mi South 6.9 mph - N/A   Clear
12:55 PM 90.1 °F 15.6 °F 6% 29.93 in 10.0 mi SW 16.1 mph 23.0 mph N/A   Clear
1:15 PM 90.0 °F 16.3 °F 7% 29.93 in 10.0 mi SW 21.9 mph 26.5 mph N/A   Clear
1:35 PM 91.9 °F 16.0 °F 6% 29.93 in 10.0 mi SSW 25.3 mph 28.8 mph N/A   Clear
1:55 PM 92.3 °F 16.7 °F 6% 29.92 in 10.0 mi South 18.4 mph 26.5 mph N/A   Clear
2:15 PM 92.1 °F 17.1 °F 6% 29.92 in 10.0 mi SW 15.0 mph 29.9 mph N/A   Clear
2:35 PM 93.7 °F 16.7 °F 6% 29.91 in 10.0 mi SSW 26.5 mph 34.5 mph N/A   Clear
2:55 PM 92.7 °F 16.7 °F 6% 29.91 in 10.0 mi SSW 17.3 mph 27.6 mph N/A   Clear
3:15 PM 93.4 °F 16.5 °F 6% 29.90 in 10.0 mi SW 16.1 mph 27.6 mph N/A   Clear
3:35 PM 93.4 °F 15.6 °F 6% 29.90 in 10.0 mi SW 17.3 mph 32.2 mph N/A   Clear
3:55 PM 93.0 °F 16.7 °F 6% 29.89 in 10.0 mi SW 15.0 mph 19.6 mph N/A   Clear
4:15 PM 94.5 °F 15.4 °F 6% 29.89 in 10.0 mi SSW 18.4 mph 31.1 mph N/A   Clear
4:35 PM 93.6 °F 13.8 °F 5% 29.88 in 10.0 mi SSW 24.2 mph 31.1 mph N/A   Clear
4:55 PM 93.4 °F 13.3 °F 5% 29.88 in 10.0 mi WSW 20.7 mph 33.4 mph N/A   Clear
5:15 PM 93.4 °F 14.7 °F 6% 29.87 in 10.0 mi SW 13.8 mph 31.1 mph N/A   Clear
5:35 PM 93.2 °F 15.8 °F 6% 29.87 in 10.0 mi SSW 19.6 mph 29.9 mph N/A   Clear
5:55 PM 92.7 °F 13.1 °F 5% 29.87 in 10.0 mi SW 18.4 mph 34.5 mph N/A   Clear
6:15 PM 92.3 °F 12.9 °F 5% 29.86 in 10.0 mi SW 20.7 mph 31.1 mph N/A   Clear
6:35 PM 92.3 °F 16.3 °F 6% 29.86 in 10.0 mi SW 16.1 mph 26.5 mph N/A   Clear
6:55 PM 91.6 °F 15.1 °F 6% 29.86 in 10.0 mi SW 18.4 mph 26.5 mph N/A   Clear
7:15 PM 90.7 °F 13.6 °F 6% 29.86 in 10.0 mi SSW 17.3 mph 25.3 mph N/A   Clear
7:35 PM 89.6 °F 14.0 °F 6% 29.86 in 10.0 mi SW 16.1 mph 21.9 mph N/A   Clear
7:55 PM 88.2 °F 14.7 °F 7% 29.87 in 10.0 mi SW 11.5 mph 20.7 mph N/A   Clear
8:15 PM 87.1 °F 13.3 °F 6% 29.87 in 10.0 mi SW 11.5 mph - N/A   Clear
8:35 PM 85.3 °F 13.1 °F 7% 29.88 in 10.0 mi SW 12.7 mph - N/A   Clear
8:55 PM 84.4 °F 12.7 °F 7% 29.88 in 10.0 mi WSW 10.4 mph - N/A   Clear
9:15 PM 83.7 °F 12.2 °F 7% 29.89 in 10.0 mi SW 6.9 mph - N/A   Clear
9:35 PM 81.7 °F 10.6 °F 7% 29.89 in 10.0 mi WSW 5.8 mph - N/A   Clear
9:55 PM 80.2 °F 9.9 °F 7% 29.90 in 10.0 mi WSW 5.8 mph - N/A   Clear
10:15 PM 78.3 °F 10.8 °F 8% 29.90 in 10.0 mi SW 3.5 mph - N/A   Clear
10:35 PM 74.1 °F 12.4 °F 9% 29.91 in 10.0 mi East 4.6 mph - N/A   Clear
10:55 PM 69.8 °F 10.6 °F 10% 29.92 in 10.0 mi East 5.8 mph - N/A   Clear
11:15 PM 70.5 °F 14.4 °F 12% 29.92 in 10.0 mi East 8.1 mph - N/A   Clear
11:35 PM 67.5 °F 14.2 °F 13% 29.92 in 10.0 mi ENE 3.5 mph - N/A   Clear
11:55 PM 64.8 °F 19.6 °F 18% 29.93 in 10.0 mi NNE 4.6 mph - N/A   Clear